Voltar ao catálogo

COSMOS 1354

AtivoNavegaçãoLEO
NORAD 13148·PAYLOAD·🇷🇺 Russia

Lançado Apr 28, 1982 de Plesetsk Cosmodrome

Loading…

Próximas Passagens (próximas 24 horas)

TLE

AtualizadoSource: Space-Track

Época: Sep 14, 2026, 16:00 UTC

1 13148U 82037A   26257.66692452  .00000063  00000-0  32573-4 0  9992
2 13148  74.0373 302.2493 0008059  88.5995 271.6079 14.32830087317876

Acompanhe COSMOS 1354 em tempo real com AllMySat

Download on the App Store